,,PA_Meas_PMT16A,,PR_Meas_QMR101_102,,RH_Meas_QMH101,,SR_Meas_QMS101,,TA_Meas_QMH101,,GenWind,,GenWind,
time,status,PA,status,PR,status,RH,status,SR,status,TA,status,DirAvg,status,SpdAvg,
2010-08-15, 00:00:04,VALID,918.833,VALID,0,VALID,96.642,VALID,0,VALID,20.6959,VALID,107,VALID,0.591406,
2010-08-15, 00:01:04,VALID,918.83,VALID,0,VALID,96.6573,VALID,0,VALID,20.6959,VALID,107,VALID,0.712109,
2010-08-15, 00:02:04,VALID,918.861,VALID,0,VALID,96.6649,VALID,0,VALID,20.6959,VALID,107,VALID,0.982422,
2010-08-15, 00:03:04,VALID,918.831,VALID,0,VALID,96.6649,VALID,0,VALID,20.6764,VALID,107,VALID,0.678906,
2010-08-15, 00:04:04,VALID,918.834,VALID,0,VALID,96.6878,VALID,0,VALID,20.6764,VALID,107,VALID,0.973437,
2010-08-15, 00:05:04,VALID,918.819,VALID,0,VALID,96.6802,VALID,0,VALID,20.6374,VALID,107,VALID,0.636719,
2010-08-15, 00:06:04,VALID,918.808,VALID,0,VALID,96.7335,VALID,0,VALID,20.6585,VALID,107,VALID,0.454688,
2010-08-15, 00:07:04,VALID,918.79,VALID,0,VALID,96.764,VALID,0,VALID,20.6764,VALID,107,VALID,0.296875,
2010-08-15, 00:08:04,VALID,918.819,VALID,0,VALID,96.7488,VALID,0,VALID,20.6975,VALID,107,VALID,0.607813,
2010-08-15, 00:09:04,VALID,918.761,VALID,0,VALID,96.7259,VALID,0,VALID,20.6569,VALID,107,VALID,0.480469,
2010-08-15, 00:10:04,VALID,918.763,VALID,0,VALID,96.7564,VALID,0,VALID,20.6585,VALID,107,VALID,0.114063,
2010-08-15, 00:11:04,VALID,918.77,VALID,0,VALID,96.7488,VALID,0,VALID,20.6374,VALID,107,VALID,0.0105469,
2010-08-15, 00:12:04,VALID,918.72,VALID,0,VALID,96.7869,VALID,0,VALID,20.6569,VALID,107,VALID,0,
2010-08-15, 00:13:04,VALID,918.723,VALID,0,VALID,96.8021,VALID,0,VALID,20.6569,VALID,107,VALID,0,
2010-08-15, 00:14:04,VALID,918.736,VALID,0,VALID,96.8403,VALID,0,VALID,20.717,VALID,108,VALID,0.0394531,
2010-08-15, 00:15:04,VALID,918.714,VALID,0,VALID,96.8555,VALID,0,VALID,20.756,VALID,108,VALID,0.0015625,
2010-08-15, 00:16:04,VALID,918.699,VALID,0,VALID,96.8403,VALID,0,VALID,20.7349,VALID,108,VALID,0,
2010-08-15, 00:17:04,VALID,918.687,VALID,0,VALID,96.8555,VALID,0,VALID,20.7349,VALID,107,VALID,0,
2010-08-15, 00:18:04,VALID,918.691,VALID,0,VALID,96.8174,VALID,0,VALID,20.7349,VALID,107,VALID,0,
2010-08-15, 00:19:04,VALID,918.668,VALID,0,VALID,96.8326,VALID,0,VALID,20.7755,VALID,107,VALID,0.221484,
2010-08-15, 00:20:04,VALID,918.65,VALID,0,VALID,96.8479,VALID,0,VALID,20.7739,VALID,107,VALID,0.272266,
2010-08-15, 00:21:04,VALID,918.679,VALID,0,VALID,96.8326,VALID,0,VALID,20.7739,VALID,107,VALID,0.316016,
2010-08-15, 00:22:04,VALID,918.636,VALID,0,VALID,96.8021,VALID,0,VALID,20.7349,VALID,107,VALID,0.221875,
2010-08-15, 00:23:04,VALID,918.618,VALID,0,VALID,96.7945,VALID,0,VALID,20.7154,VALID,107,VALID,0.248437,
2010-08-15, 00:24:04,VALID,918.629,VALID,0,VALID,96.8021,VALID,0,VALID,20.756,VALID,107,VALID,0.00664063,
2010-08-15, 00:25:04,VALID,918.619,VALID,0,VALID,96.7945,VALID,0,VALID,20.756,VALID,107,VALID,0.191797,
2010-08-15, 00:26:04,VALID,918.613,VALID,0,VALID,96.8021,VALID,0,VALID,20.7349,VALID,107,VALID,0.378906,
2010-08-15, 00:27:04,VALID,918.603,VALID,0,VALID,96.7869,VALID,0,VALID,20.7349,VALID,107,VALID,0.332812,
2010-08-15, 00:28:04,VALID,918.618,VALID,0,VALID,96.7793,VALID,0,VALID,20.7154,VALID,107,VALID,0,
2010-08-15, 00:29:04,VALID,918.581,VALID,0,VALID,96.7716,VALID,0,VALID,20.7154,VALID,107,VALID,0.264453,
2010-08-15, 00:30:04,VALID,918.579,VALID,0,VALID,96.764,VALID,0,VALID,20.7154,VALID,107,VALID,0.00546875,
2010-08-15, 00:31:04,VALID,918.556,VALID,0,VALID,96.7564,VALID,0,VALID,20.7154,VALID,107,VALID,0,
2010-08-15, 00:32:04,VALID,918.574,VALID,0,VALID,96.7716,VALID,0,VALID,20.7349,VALID,107,VALID,0.0871094,
2010-08-15, 00:33:04,VALID,918.548,VALID,0,VALID,96.7411,VALID,0,VALID,20.717,VALID,107,VALID,0.389453,
2010-08-15, 00:34:04,VALID,918.531,VALID,0,VALID,96.7259,VALID,0,VALID,20.6975,VALID,107,VALID,0,
2010-08-15, 00:35:04,VALID,918.508,VALID,0,VALID,96.7107,VALID,0,VALID,20.6959,VALID,107,VALID,0.174219,
2010-08-15, 00:36:04,VALID,918.547,VALID,0,VALID,96.6954,VALID,0,VALID,20.717,VALID,107,VALID,0,
2010-08-15, 00:37:04,VALID,918.531,VALID,0,VALID,96.6649,VALID,0,VALID,20.6764,VALID,107,VALID,0,
2010-08-15, 00:38:04,VALID,918.518,VALID,0,VALID,96.6878,VALID,0,VALID,20.6959,VALID,107,VALID,0,
2010-08-15, 00:39:04,VALID,918.582,VALID,0,VALID,96.703,VALID,0,VALID,20.6959,VALID,107,VALID,0,
2010-08-15, 00:40:04,VALID,918.551,VALID,0,VALID,96.6954,VALID,0,VALID,20.717,VALID,107,VALID,0,
2010-08-15, 00:41:04,VALID,918.534,VALID,0,VALID,96.6725,VALID,0,VALID,20.717,VALID,107,VALID,0,
2010-08-15, 00:42:04,VALID,918.564,VALID,0,VALID,96.6573,VALID,0,VALID,20.6959,VALID,107,VALID,0,
2010-08-15, 00:43:04,VALID,918.537,VALID,0,VALID,96.6878,VALID,0,VALID,20.7154,VALID,107,VALID,0.00234375,
2010-08-15, 00:44:04,VALID,918.543,VALID,0,VALID,96.6725,VALID,0,VALID,20.7154,VALID,107,VALID,0.0140625,
2010-08-15, 00:45:04,VALID,918.521,VALID,0,VALID,96.6268,VALID,0,VALID,20.6959,VALID,107,VALID,0.283984,
2010-08-15, 00:46:04,VALID,918.517,VALID,0,VALID,96.6039,VALID,0,VALID,20.7154,VALID,107,VALID,0.453125,
2010-08-15, 00:47:04,VALID,918.491,VALID,0,VALID,96.6039,VALID,0,VALID,20.6764,VALID,107,VALID,0.5625,
2010-08-15, 00:48:04,VALID,918.523,VALID,0,VALID,96.5277,VALID,0,VALID,20.6764,VALID,107,VALID,0.457812,
2010-08-15, 00:49:04,VALID,918.487,VALID,0,VALID,96.5429,VALID,0,VALID,20.6975,VALID,107,VALID,0.322266,
2010-08-15, 00:50:04,VALID,918.47,VALID,0,VALID,96.4896,VALID,0,VALID,20.6569,VALID,107,VALID,0.265234,
2010-08-15, 00:51:04,VALID,918.465,VALID,0,VALID,96.4743,VALID,0,VALID,20.6569,VALID,107,VALID,0.303516,
2010-08-15, 00:52:04,VALID,918.441,VALID,0,VALID,96.4667,VALID,0,VALID,20.6374,VALID,107,VALID,0.500391,
2010-08-15, 00:53:04,VALID,918.447,VALID,0,VALID,96.5048,VALID,0,VALID,20.6374,VALID,107,VALID,0.760547,
2010-08-15, 00:54:04,VALID,918.459,VALID,0,VALID,96.5201,VALID,0,VALID,20.6374,VALID,107,VALID,0.716797,
2010-08-15, 00:55:04,VALID,918.444,VALID,0,VALID,96.4972,VALID,0,VALID,20.6569,VALID,107,VALID,0.695313,
2010-08-15, 00:56:04,VALID,918.468,VALID,0,VALID,96.5048,VALID,0,VALID,20.6163,VALID,107,VALID,0.553906,
2010-08-15, 00:57:04,VALID,918.459,VALID,0,VALID,96.5124,VALID,0,VALID,20.6374,VALID,107,VALID,0.612109,
2010-08-15, 00:58:04,VALID,918.428,VALID,0,VALID,96.5963,VALID,0.107441,VALID,20.6569,VALID,107,VALID,0.403125,
2010-08-15, 00:59:04,VALID,918.416,VALID,0,VALID,96.5963,VALID,0.107441,VALID,20.6748,VALID,107,VALID,0.509766,
2010-08-15, 01:00:04,VALID,918.4,VALID,0,VALID,96.5887,VALID,0.107441,VALID,20.6764,VALID,107,VALID,0.283203,
2010-08-15, 01:01:04,VALID,918.381,VALID,0,VALID,96.5506,VALID,0,VALID,20.6553,VALID,107,VALID,0.41875,
2010-08-15, 01:02:04,VALID,918.362,VALID,0,VALID,96.5506,VALID,0.107441,VALID,20.6553,VALID,107,VALID,0.394141,
2010-08-15, 01:03:04,VALID,918.348,VALID,0,VALID,96.5506,VALID,0,VALID,20.6553,VALID,107,VALID,0.388672,
2010-08-15, 01:04:04,VALID,918.308,VALID,0,VALID,96.5353,VALID,0,VALID,20.6553,VALID,107,VALID,0.414063,
2010-08-15, 01:05:04,VALID,918.274,VALID,0,VALID,96.4667,VALID,0.107441,VALID,20.6358,VALID,107,VALID,0.476953,
2010-08-15, 01:06:04,VALID,918.264,VALID,0,VALID,96.4591,VALID,0,VALID,20.6163,VALID,107,VALID,0.734766,
2010-08-15, 01:07:04,VALID,918.212,VALID,0,VALID,96.5811,VALID,0,VALID,20.6764,VALID,107,VALID,0.523828,
2010-08-15, 01:08:04,VALID,918.199,VALID,0,VALID,96.5658,VALID,0,VALID,20.6959,VALID,107,VALID,0.609766,
2010-08-15, 01:09:04,VALID,918.153,VALID,0,VALID,96.4972,VALID,0.107441,VALID,20.6748,VALID,107,VALID,0.785547,
2010-08-15, 01:10:04,VALID,918.141,VALID,0,VALID,96.5429,VALID,0,VALID,20.678,VALID,107,VALID,0.165234,
2010-08-15, 01:11:04,VALID,918.137,VALID,0,VALID,96.5277,VALID,0,VALID,20.6374,VALID,107,VALID,0.823828,
2010-08-15, 01:12:04,VALID,918.073,VALID,0,VALID,96.4972,VALID,0,VALID,20.6374,VALID,107,VALID,0.937891,
2010-08-15, 01:13:04,VALID,918.048,VALID,0,VALID,96.5963,VALID,0,VALID,20.6569,VALID,37,VALID,0.879687,
2010-08-15, 01:14:04,VALID,918.08,VALID,0,VALID,96.5429,VALID,0,VALID,20.6374,VALID,356,VALID,0.978516,
2010-08-15, 01:15:04,VALID,918.044,VALID,0,VALID,96.5658,VALID,0,VALID,20.639,VALID,356,VALID,1.14531,
2010-08-15, 01:16:04,VALID,918.075,VALID,0,VALID,96.5506,VALID,0,VALID,20.6179,VALID,356,VALID,1.84492,
2010-08-15, 01:17:04,VALID,918.041,VALID,0,VALID,96.5582,VALID,0,VALID,20.5789,VALID,345,VALID,1.36289,
2010-08-15, 01:18:04,VALID,918.044,VALID,0,VALID,96.6344,VALID,0,VALID,20.6179,VALID,344,VALID,1.02344,
2010-08-15, 01:19:04,VALID,918.042,VALID,0,VALID,96.642,VALID,0,VALID,20.6179,VALID,345,VALID,1.05938,
2010-08-15, 01:20:04,VALID,918.029,VALID,0,VALID,96.6878,VALID,0,VALID,20.6179,VALID,345,VALID,0.929297,
2010-08-15, 01:21:04,VALID,917.998,VALID,0,VALID,96.6192,VALID,0,VALID,20.6179,VALID,345,VALID,1.40117,
2010-08-15, 01:22:04,VALID,918.004,VALID,0,VALID,96.6878,VALID,0,VALID,20.5789,VALID,345,VALID,0.815625,
2010-08-15, 01:23:04,VALID,918.007,VALID,0,VALID,96.6802,VALID,0,VALID,20.5999,VALID,345,VALID,1.35547,
2010-08-15, 01:24:04,VALID,918.018,VALID,0,VALID,96.6497,VALID,0,VALID,20.5399,VALID,345,VALID,1.12109,
2010-08-15, 01:25:04,VALID,918.048,VALID,0,VALID,96.642,VALID,0,VALID,20.5399,VALID,357,VALID,1.57227,
2010-08-15, 01:26:04,VALID,918.01,VALID,0,VALID,96.5429,VALID,0,VALID,20.4618,VALID,356,VALID,1.9918,
2010-08-15, 01:27:04,VALID,918.024,VALID,0,VALID,96.5658,VALID,0,VALID,20.4423,VALID,37,VALID,1.79219,
2010-08-15, 01:28:04,VALID,918.029,VALID,0,VALID,96.6039,VALID,0,VALID,20.4829,VALID,19,VALID,0.971094,
2010-08-15, 01:29:04,VALID,918.02,VALID,0,VALID,96.4515,VALID,0,VALID,20.4228,VALID,348,VALID,1.78789,
2010-08-15, 01:30:04,VALID,918.031,VALID,0,VALID,96.5048,VALID,0,VALID,20.4634,VALID,332,VALID,1.06797,
2010-08-15, 01:31:04,VALID,918.043,VALID,0,VALID,96.4896,VALID,0,VALID,20.4634,VALID,332,VALID,1.15273,
2010-08-15, 01:32:04,VALID,918.06,VALID,0,VALID,96.421,VALID,0,VALID,20.4033,VALID,14,VALID,1.23633,
2010-08-15, 01:33:04,VALID,918.07,VALID,0,VALID,96.4133,VALID,0,VALID,20.4439,VALID,25,VALID,1.57852,
2010-08-15, 01:34:04,VALID,918.078,VALID,0,VALID,96.3447,VALID,0,VALID,20.4228,VALID,25,VALID,1.30352,
2010-08-15, 01:35:04,VALID,918.097,VALID,0,VALID,96.3142,VALID,0,VALID,20.4033,VALID,25,VALID,1.12383,
2010-08-15, 01:36:04,VALID,918.1,VALID,0,VALID,96.2685,VALID,0,VALID,20.4033,VALID,25,VALID,1.40742,
2010-08-15, 01:37:04,VALID,918.09,VALID,0,VALID,96.2837,VALID,0,VALID,20.4033,VALID,25,VALID,1.01055,
2010-08-15, 01:38:04,VALID,918.101,VALID,0,VALID,96.1999,VALID,0,VALID,20.4244,VALID,25,VALID,1.17109,
2010-08-15, 01:39:04,VALID,918.064,VALID,0,VALID,96.1465,VALID,0,VALID,20.3838,VALID,7,VALID,1.07305,
2010-08-15, 01:40:04,VALID,918.019,VALID,0,VALID,96.0855,VALID,0,VALID,20.4033,VALID,7,VALID,1.29453,
2010-08-15, 01:41:04,VALID,917.993,VALID,0,VALID,96.0245,VALID,0,VALID,20.4033,VALID,7,VALID,1.45352,
2010-08-15, 01:42:04,VALID,917.983,VALID,0,VALID,95.9712,VALID,0,VALID,20.3838,VALID,360,VALID,0.938672,
2010-08-15, 01:43:04,VALID,917.971,VALID,0,VALID,95.895,VALID,0.107441,VALID,20.3628,VALID,18,VALID,0.98125,
2010-08-15, 01:44:04,VALID,917.96,VALID,0,VALID,95.8645,VALID,0,VALID,20.4018,VALID,18,VALID,0.944922,
2010-08-15, 01:45:04,VALID,917.954,VALID,0,VALID,95.8263,VALID,0,VALID,20.4033,VALID,18,VALID,1.48906,
2010-08-15, 01:46:04,VALID,917.951,VALID,0,VALID,95.7654,VALID,0.107441,VALID,20.3628,VALID,18,VALID,1.78672,
2010-08-15, 01:47:04,VALID,917.948,VALID,0,VALID,95.8263,VALID,0.107441,VALID,20.3838,VALID,18,VALID,1.21836,
2010-08-15, 01:48:04,VALID,917.961,VALID,0,VALID,95.9407,VALID,0.107441,VALID,20.3823,VALID,18,VALID,0.878516,
2010-08-15, 01:49:04,VALID,917.943,VALID,0,VALID,95.9712,VALID,0,VALID,20.4033,VALID,18,VALID,1.48945,
2010-08-15, 01:50:04,VALID,917.969,VALID,0,VALID,96.0627,VALID,0,VALID,20.4033,VALID,18,VALID,0.68125,
2010-08-15, 01:51:04,VALID,917.95,VALID,0,VALID,96.1618,VALID,0,VALID,20.4228,VALID,18,VALID,0.919141,
2010-08-15, 01:52:04,VALID,917.938,VALID,0,VALID,96.1084,VALID,0.107441,VALID,20.4228,VALID,18,VALID,1.27422,
2010-08-15, 01:53:04,VALID,917.919,VALID,0,VALID,96.1541,VALID,0.107441,VALID,20.4033,VALID,18,VALID,1.14141,
2010-08-15, 01:54:04,VALID,917.907,VALID,0,VALID,96.1236,VALID,0.107441,VALID,20.4033,VALID,18,VALID,0.889453,
2010-08-15, 01:55:04,VALID,917.9,VALID,0,VALID,96.1008,VALID,0,VALID,20.4033,VALID,18,VALID,0.890234,
2010-08-15, 01:56:04,VALID,917.929,VALID,0,VALID,96.116,VALID,0,VALID,20.4018,VALID,18,VALID,1.03555,
2010-08-15, 01:57:04,VALID,917.929,VALID,0,VALID,96.0932,VALID,0.107441,VALID,20.4033,VALID,18,VALID,0.8,
2010-08-15, 01:58:04,VALID,917.913,VALID,0,VALID,95.9788,VALID,0,VALID,20.3838,VALID,17,VALID,0.991016,
2010-08-15, 01:59:04,VALID,917.909,VALID,0,VALID,95.9788,VALID,0.107441,VALID,20.3838,VALID,17,VALID,1.20391,
2010-08-15, 02:00:04,VALID,917.932,VALID,0,VALID,95.9178,VALID,0.107441,VALID,20.3838,VALID,14,VALID,1.2707,
2010-08-15, 02:01:04,VALID,917.901,VALID,0,VALID,96.0169,VALID,0.107441,VALID,20.3838,VALID,19,VALID,2.40234,
2010-08-15, 02:02:04,VALID,917.881,VALID,0,VALID,95.9559,VALID,0,VALID,20.3448,VALID,16,VALID,2.01016,
2010-08-15, 02:03:04,VALID,917.912,VALID,0,VALID,95.9712,VALID,0,VALID,20.3253,VALID,341,VALID,1.34883,
2010-08-15, 02:04:04,VALID,917.883,VALID,0,VALID,96.0474,VALID,0,VALID,20.3448,VALID,335,VALID,0.870313,
2010-08-15, 02:05:04,VALID,917.85,VALID,0,VALID,96.0855,VALID,0,VALID,20.3448,VALID,335,VALID,1.5125,
2010-08-15, 02:06:04,VALID,917.865,VALID,0,VALID,96.1008,VALID,0,VALID,20.3448,VALID,335,VALID,1.30781,
2010-08-15, 02:07:04,VALID,917.834,VALID,0,VALID,96.2151,VALID,0,VALID,20.3643,VALID,335,VALID,0.843359,
2010-08-15, 02:08:04,VALID,917.822,VALID,0,VALID,96.2837,VALID,0,VALID,20.3838,VALID,335,VALID,0.894922,
2010-08-15, 02:09:04,VALID,917.774,VALID,0,VALID,96.3142,VALID,0,VALID,20.4033,VALID,335,VALID,0.766016,
2010-08-15, 02:10:04,VALID,917.76,VALID,0,VALID,96.36,VALID,0,VALID,20.4228,VALID,335,VALID,0.29375,
2010-08-15, 02:11:04,VALID,917.706,VALID,0,VALID,96.3829,VALID,0,VALID,20.4423,VALID,335,VALID,0.628906,
2010-08-15, 02:12:04,VALID,917.701,VALID,0,VALID,96.3752,VALID,0,VALID,20.4033,VALID,335,VALID,0.912891,
2010-08-15, 02:13:04,VALID,917.658,VALID,0,VALID,96.4133,VALID,0,VALID,20.4228,VALID,335,VALID,0.034375,
2010-08-15, 02:14:04,VALID,917.617,VALID,0,VALID,96.3524,VALID,0,VALID,20.4033,VALID,335,VALID,0.00195313,
2010-08-15, 02:15:04,VALID,917.602,VALID,0,VALID,96.3524,VALID,0.107441,VALID,20.4033,VALID,335,VALID,0.376953,
2010-08-15, 02:16:04,VALID,917.601,VALID,0,VALID,96.3829,VALID,0,VALID,20.4033,VALID,335,VALID,0.599609,
2010-08-15, 02:17:04,VALID,917.621,VALID,0,VALID,96.3295,VALID,0.107441,VALID,20.3838,VALID,335,VALID,0.532422,
2010-08-15, 02:18:04,VALID,917.582,VALID,0,VALID,96.3905,VALID,0,VALID,20.4033,VALID,335,VALID,0.905859,
2010-08-15, 02:19:04,VALID,917.607,VALID,0,VALID,96.4591,VALID,0,VALID,20.4033,VALID,335,VALID,0.757813,
2010-08-15, 02:20:04,VALID,917.589,VALID,0,VALID,96.4819,VALID,0.107441,VALID,20.4423,VALID,335,VALID,0.787109,
2010-08-15, 02:21:04,VALID,917.572,VALID,0,VALID,96.5124,VALID,0.107441,VALID,20.4213,VALID,335,VALID,0.982422,
2010-08-15, 02:22:04,VALID,917.586,VALID,0,VALID,96.4819,VALID,0,VALID,20.4018,VALID,335,VALID,0.66875,
2010-08-15, 02:23:04,VALID,917.598,VALID,0,VALID,96.5582,VALID,0,VALID,20.4213,VALID,335,VALID,0.580469,
2010-08-15, 02:24:04,VALID,917.575,VALID,0,VALID,96.5811,VALID,0,VALID,20.4423,VALID,335,VALID,0.148438,
2010-08-15, 02:25:04,VALID,917.584,VALID,0,VALID,96.5353,VALID,0,VALID,20.4244,VALID,335,VALID,0.0675781,
2010-08-15, 02:26:04,VALID,917.554,VALID,0,VALID,96.4743,VALID,0,VALID,20.3659,VALID,335,VALID,0,
2010-08-15, 02:27:04,VALID,917.566,VALID,0,VALID,96.5048,VALID,0,VALID,20.3464,VALID,335,VALID,0.235938,
2010-08-15, 02:28:04,VALID,917.562,VALID,0,VALID,96.4896,VALID,0,VALID,20.3058,VALID,335,VALID,0.391797,
2010-08-15, 02:29:04,VALID,917.552,VALID,0,VALID,96.5277,VALID,0,VALID,20.3464,VALID,335,VALID,0.493359,
2010-08-15, 02:30:04,VALID,917.57,VALID,0,VALID,96.5887,VALID,0,VALID,20.3854,VALID,335,VALID,0.255078,
2010-08-15, 02:31:04,VALID,917.559,VALID,0,VALID,96.5811,VALID,0,VALID,20.3854,VALID,335,VALID,0.205859,
2010-08-15, 02:32:04,VALID,917.564,VALID,0,VALID,96.5658,VALID,0,VALID,20.3854,VALID,335,VALID,0.398438,
2010-08-15, 02:33:04,VALID,917.551,VALID,0,VALID,96.5124,VALID,0,VALID,20.3659,VALID,335,VALID,0.656641,
2010-08-15, 02:34:04,VALID,917.554,VALID,0,VALID,96.6115,VALID,0,VALID,20.3659,VALID,335,VALID,0.403516,
2010-08-15, 02:35:04,VALID,917.545,VALID,0,VALID,96.6268,VALID,0,VALID,20.4049,VALID,335,VALID,0,
2010-08-15, 02:36:04,VALID,917.539,VALID,0,VALID,96.6192,VALID,0,VALID,20.4244,VALID,335,VALID,0.150781,
2010-08-15, 02:37:04,VALID,917.516,VALID,0,VALID,96.6192,VALID,0,VALID,20.4049,VALID,335,VALID,0,
2010-08-15, 02:38:04,VALID,917.54,VALID,0,VALID,96.6268,VALID,0,VALID,20.4049,VALID,335,VALID,0.657031,
2010-08-15, 02:39:05,VALID,917.531,VALID,0,VALID,96.6192,VALID,0,VALID,20.3854,VALID,335,VALID,0.758594,
2010-08-15, 02:40:05,VALID,917.519,VALID,0,VALID,96.6192,VALID,0,VALID,20.4049,VALID,335,VALID,0.648438,
2010-08-15, 02:41:05,VALID,917.537,VALID,0,VALID,96.6573,VALID,0,VALID,20.4033,VALID,335,VALID,0.421875,
2010-08-15, 02:42:05,VALID,917.52,VALID,0.2,VALID,96.5124,VALID,0,VALID,20.3464,VALID,335,VALID,0.777344,
2010-08-15, 02:43:05,VALID,917.495,VALID,0,VALID,96.4896,VALID,0,VALID,20.2863,VALID,335,VALID,0.903906,
2010-08-15, 02:44:05,VALID,917.498,VALID,0,VALID,96.5277,VALID,0,VALID,20.2863,VALID,336,VALID,0.751953,
2010-08-15, 02:45:05,VALID,917.45,VALID,0,VALID,96.5353,VALID,0,VALID,20.2863,VALID,335,VALID,0.769922,
2010-08-15, 02:46:05,VALID,917.46,VALID,0,VALID,96.5811,VALID,0,VALID,20.3058,VALID,336,VALID,0.672266,
2010-08-15, 02:47:05,VALID,917.48,VALID,0,VALID,96.5277,VALID,0.107441,VALID,20.2653,VALID,336,VALID,0.648047,
2010-08-15, 02:48:05,VALID,917.451,VALID,0,VALID,96.6115,VALID,0,VALID,20.3058,VALID,335,VALID,0.692578,
2010-08-15, 02:49:05,VALID,917.474,VALID,0,VALID,96.4896,VALID,0.107441,VALID,20.3058,VALID,335,VALID,0.603906,
2010-08-15, 02:50:05,VALID,917.483,VALID,0,VALID,96.4819,VALID,0.107441,VALID,20.2863,VALID,335,VALID,0.732031,
2010-08-15, 02:51:05,VALID,917.484,VALID,0,VALID,96.3676,VALID,0,VALID,20.2278,VALID,336,VALID,0.771484,
2010-08-15, 02:52:05,VALID,917.483,VALID,0,VALID,96.3371,VALID,0,VALID,20.1888,VALID,336,VALID,1.06953,
2010-08-15, 02:53:05,VALID,917.447,VALID,0,VALID,96.3905,VALID,0,VALID,20.1888,VALID,336,VALID,0.852344,
2010-08-15, 02:54:05,VALID,917.461,VALID,0,VALID,96.4286,VALID,0,VALID,20.2278,VALID,336,VALID,0.809766,
2010-08-15, 02:55:05,VALID,917.45,VALID,0,VALID,96.4133,VALID,0.107441,VALID,20.2083,VALID,336,VALID,0.403906,
2010-08-15, 02:56:05,VALID,917.431,VALID,0,VALID,96.4362,VALID,0,VALID,20.2473,VALID,336,VALID,0.0570313,
2010-08-15, 02:57:05,VALID,917.401,VALID,0,VALID,96.421,VALID,0,VALID,20.2473,VALID,336,VALID,0.229687,
2010-08-15, 02:58:05,VALID,917.408,VALID,0,VALID,96.2837,VALID,0.107441,VALID,20.1888,VALID,336,VALID,0.880078,
2010-08-15, 02:59:05,VALID,917.368,VALID,0,VALID,96.299,VALID,0,VALID,20.1888,VALID,336,VALID,0.578125,
2010-08-15, 03:00:05,VALID,917.353,VALID,0,VALID,96.3066,VALID,0,VALID,20.1483,VALID,336,VALID,0.312891,
2010-08-15, 03:01:05,VALID,917.364,VALID,0.2,VALID,96.36,VALID,0.107441,VALID,20.1888,VALID,336,VALID,0.364844,
2010-08-15, 03:02:05,VALID,917.361,VALID,0,VALID,96.4133,VALID,0,VALID,20.2083,VALID,336,VALID,0.341406,
2010-08-15, 03:03:05,VALID,917.353,VALID,0,VALID,96.2761,VALID,0,VALID,20.1678,VALID,336,VALID,0.530078,
2010-08-15, 03:04:05,VALID,917.353,VALID,0,VALID,96.2837,VALID,0,VALID,20.1498,VALID,336,VALID,0.686328,
2010-08-15, 03:05:05,VALID,917.334,VALID,0.2,VALID,96.2228,VALID,0.107441,VALID,20.0898,VALID,336,VALID,0.611719,
2010-08-15, 03:06:05,VALID,917.358,VALID,0,VALID,96.2914,VALID,0,VALID,20.1108,VALID,336,VALID,0.417578,
2010-08-15, 03:07:05,VALID,917.353,VALID,0,VALID,96.2456,VALID,0.107441,VALID,20.0913,VALID,336,VALID,0.254297,
2010-08-15, 03:08:05,VALID,917.398,VALID,0.2,VALID,96.238,VALID,0,VALID,20.0718,VALID,336,VALID,0.201953,
2010-08-15, 03:09:05,VALID,917.356,VALID,0,VALID,96.2837,VALID,0,VALID,20.0718,VALID,336,VALID,0.0714844,
2010-08-15, 03:10:05,VALID,917.349,VALID,0,VALID,96.2914,VALID,0,VALID,20.0913,VALID,336,VALID,0.0808594,
2010-08-15, 03:11:05,VALID,917.357,VALID,0.2,VALID,96.3447,VALID,0.107441,VALID,20.0703,VALID,336,VALID,0,
2010-08-15, 03:12:05,VALID,917.38,VALID,0,VALID,96.36,VALID,0.107441,VALID,20.1108,VALID,336,VALID,0,
2010-08-15, 03:13:05,VALID,917.345,VALID,0,VALID,96.4057,VALID,0,VALID,20.1108,VALID,336,VALID,0,
2010-08-15, 03:14:05,VALID,917.32,VALID,0.2,VALID,96.421,VALID,0,VALID,20.1108,VALID,336,VALID,0,
2010-08-15, 03:15:05,VALID,917.287,VALID,0,VALID,96.4286,VALID,0,VALID,20.0913,VALID,336,VALID,0,
2010-08-15, 03:16:05,VALID,917.301,VALID,0.2,VALID,96.4286,VALID,0,VALID,20.0913,VALID,336,VALID,0,
2010-08-15, 03:17:05,VALID,917.271,VALID,0,VALID,96.4057,VALID,0,VALID,20.0703,VALID,336,VALID,0,
2010-08-15, 03:18:05,VALID,917.281,VALID,0,VALID,96.4362,VALID,0,VALID,20.0718,VALID,336,VALID,0,
2010-08-15, 03:19:05,VALID,917.273,VALID,0.2,VALID,96.4286,VALID,0,VALID,20.0718,VALID,336,VALID,0,
2010-08-15, 03:20:05,VALID,917.287,VALID,0,VALID,96.4438,VALID,0,VALID,20.0523,VALID,336,VALID,0.05,
2010-08-15, 03:21:05,VALID,917.286,VALID,0,VALID,96.4362,VALID,0.107441,VALID,20.0313,VALID,336,VALID,0.00117188,
2010-08-15, 03:22:05,VALID,917.264,VALID,0.2,VALID,96.4438,VALID,0,VALID,20.0508,VALID,336,VALID,0.314063,
2010-08-15, 03:23:05,VALID,917.285,VALID,0,VALID,96.4133,VALID,0,VALID,20.0328,VALID,336,VALID,0.283203,
2010-08-15, 03:24:05,VALID,917.321,VALID,0,VALID,96.3752,VALID,0,VALID,19.9923,VALID,336,VALID,0.361328,
2010-08-15, 03:25:05,VALID,917.324,VALID,0.2,VALID,96.3752,VALID,0,VALID,19.9743,VALID,336,VALID,0.454688,
2010-08-15, 03:26:05,VALID,917.338,VALID,0,VALID,96.4057,VALID,0,VALID,19.9548,VALID,336,VALID,0.486719,
2010-08-15, 03:27:05,VALID,917.313,VALID,0.2,VALID,96.4057,VALID,0,VALID,19.9758,VALID,336,VALID,0.5625,
2010-08-15, 03:28:05,VALID,917.301,VALID,0,VALID,96.4515,VALID,0,VALID,19.9563,VALID,336,VALID,0.521094,
2010-08-15, 03:29:05,VALID,917.308,VALID,0.2,VALID,96.4515,VALID,0,VALID,19.9563,VALID,336,VALID,0.459375,
2010-08-15, 03:30:05,VALID,917.261,VALID,0,VALID,96.4972,VALID,0,VALID,19.9368,VALID,336,VALID,0.265234,
2010-08-15, 03:31:05,VALID,917.251,VALID,0,VALID,96.5048,VALID,0,VALID,19.9173,VALID,336,VALID,0.152734,
2010-08-15, 03:32:05,VALID,917.196,VALID,0.2,VALID,96.5506,VALID,0,VALID,19.9173,VALID,336,VALID,0,
2010-08-15, 03:33:05,VALID,917.184,VALID,0,VALID,96.5734,VALID,0,VALID,19.9173,VALID,336,VALID,0.00117188,
2010-08-15, 03:34:05,VALID,917.187,VALID,0,VALID,96.6192,VALID,0,VALID,19.9158,VALID,336,VALID,0.433984,
2010-08-15, 03:35:05,VALID,917.152,VALID,0.2,VALID,96.6192,VALID,0,VALID,19.9563,VALID,336,VALID,0.592188,
2010-08-15, 03:36:05,VALID,917.141,VALID,0,VALID,96.6649,VALID,0,VALID,19.9158,VALID,336,VALID,0.374219,
2010-08-15, 03:37:05,VALID,917.132,VALID,0,VALID,96.6802,VALID,0,VALID,19.9368,VALID,336,VALID,0.431641,
2010-08-15, 03:38:05,VALID,917.125,VALID,0,VALID,96.7183,VALID,0,VALID,19.9368,VALID,336,VALID,0.207813,
2010-08-15, 03:39:05,VALID,917.126,VALID,0.2,VALID,96.7335,VALID,0,VALID,19.9353,VALID,336,VALID,0,
2010-08-15, 03:40:05,VALID,917.11,VALID,0,VALID,96.7869,VALID,0.107441,VALID,19.9743,VALID,336,VALID,0,
2010-08-15, 03:41:05,VALID,917.111,VALID,0,VALID,96.8021,VALID,0,VALID,19.9938,VALID,336,VALID,0.369531,
2010-08-15, 03:42:05,VALID,917.13,VALID,0.2,VALID,96.7869,VALID,0.107441,VALID,19.9938,VALID,336,VALID,0.534375,
2010-08-15, 03:43:05,VALID,917.119,VALID,0,VALID,96.7335,VALID,0,VALID,19.9743,VALID,336,VALID,0.600391,
2010-08-15, 03:44:05,VALID,917.104,VALID,0,VALID,96.7183,VALID,0,VALID,19.9353,VALID,336,VALID,0.409375,